Hourly Weather Bulygino

Today, 8 July, Wednesday

Time Temperature Precipitation Wind Pressure Humidity
00:00 +27°C° 0 mm 5 mps 742 mmHg 42%
01:00 +27°C° 0 mm 5 mps 742 mmHg 46%
02:00 +26°C° 0 mm 5 mps 742 mmHg 50%
03:00 +26°C° 0 mm 5 mps 742 mmHg 55%
04:00 +25°C° 0 mm 4 mps 742 mmHg 58%
05:00 +25°C° 0 mm 4 mps 742 mmHg 62%
06:00 +23°C° 0 mm 4 mps 742 mmHg 65%
07:00 +26°C° 0 mm 4 mps 742 mmHg 63%
08:00 +27°C° 0 mm 5 mps 742 mmHg 61%
09:00 +29°C° 0 mm 5 mps 742 mmHg 58%
10:00 +32°C° 0 mm 5 mps 742 mmHg 54%
11:00 +33°C° 0 mm 5 mps 742 mmHg 50%
12:00 +35°C° 0 mm 5 mps 742 mmHg 46%
13:00 +35°C° 0 mm 5 mps 742 mmHg 48%
14:00 +36°C° 0 mm 5 mps 742 mmHg 49%
15:00 +36°C° 0 mm 4 mps 742 mmHg 50%
16:00 +35°C° 0 mm 4 mps 742 mmHg 53%
17:00 +34°C° 0 mm 4 mps 741 mmHg 56%
18:00 +33°C° 0 mm 4 mps 741 mmHg 58%
19:00 +32°C° 0 mm 5 mps 741 mmHg 56%
20:00 +30°C° 0 mm 5 mps 741 mmHg 55%
21:00 +29°C° 0 mm 6 mps 741 mmHg 53%
22:00 +28°C° 0 mm 5 mps 741 mmHg 54%
23:00 +27°C° 0 mm 4 mps 741 mmHg 55%

Tomorrow, 9 July, Thursday

Time Temperature Precipitation Wind Pressure Humidity
00:00 +25°C° 0 mm 3 mps 741 mmHg 56%
01:00 +25°C° 0.2 mm 3 mps 741 mmHg 58%
02:00 +23°C° 0.2 mm 4 mps 741 mmHg 61%
03:00 +23°C° 0.2 mm 4 mps 741 mmHg 64%
04:00 +24°C° 0.1 mm 3 mps 741 mmHg 66%
05:00 +24°C° 0.1 mm 3 mps 741 mmHg 68%
06:00 +24°C° 0.1 mm 2 mps 741 mmHg 70%
07:00 +25°C° 0 mm 3 mps 741 mmHg 68%
08:00 +26°C° 0 mm 4 mps 741 mmHg 67%
09:00 +27°C° 0 mm 4 mps 741 mmHg 65%
10:00 +28°C° 0 mm 4 mps 742 mmHg 65%
11:00 +28°C° 0 mm 4 mps 742 mmHg 64%
12:00 +29°C° 0 mm 3 mps 742 mmHg 63%
13:00 +29°C° 0.2 mm 4 mps 742 mmHg 66%
14:00 +29°C° 0.2 mm 4 mps 743 mmHg 68%
15:00 +29°C° 0.2 mm 4 mps 743 mmHg 70%
16:00 +27°C° 3.5 mm 4 mps 743 mmHg 78%
17:00 +25°C° 3.5 mm 4 mps 743 mmHg 86%
18:00 +22°C° 3.5 mm 4 mps 743 mmHg 94%
19:00 +21°C° 0.7 mm 4 mps 744 mmHg 93%
20:00 +20°C° 0.7 mm 4 mps 744 mmHg 93%
21:00 +19°C° 0.7 mm 4 mps 745 mmHg 93%
22:00 +19°C° 0 mm 4 mps 745 mmHg 92%
23:00 +18°C° 0 mm 4 mps 745 mmHg 92%

Day after tomorrow, 10 July, Friday

Time Temperature Precipitation Wind Pressure Humidity
00:00 +18°C° 0 mm 4 mps 745 mmHg 92%
01:00 +17°C° 0 mm 4 mps 746 mmHg 92%
02:00 +17°C° 0 mm 4 mps 746 mmHg 93%
03:00 +16°C° 0 mm 3 mps 746 mmHg 93%
04:00 +15°C° 0 mm 4 mps 747 mmHg 92%
05:00 +15°C° 0 mm 4 mps 747 mmHg 90%
06:00 +17°C° 0 mm 4 mps 747 mmHg 89%
07:00 +18°C° 0 mm 4 mps 748 mmHg 83%
08:00 +19°C° 0 mm 4 mps 748 mmHg 76%
09:00 +20°C° 0 mm 4 mps 748 mmHg 70%
10:00 +21°C° 0 mm 4 mps 749 mmHg 67%
11:00 +23°C° 0 mm 4 mps 749 mmHg 64%
12:00 +25°C° 0 mm 4 mps 749 mmHg 61%
13:00 +25°C° 0 mm 4 mps 749 mmHg 60%
14:00 +25°C° 0 mm 4 mps 749 mmHg 59%
15:00 +25°C° 0 mm 5 mps 749 mmHg 58%
16:00 +25°C° 0 mm 4 mps 750 mmHg 61%
17:00 +23°C° 0 mm 4 mps 750 mmHg 64%
18:00 +22°C° 0 mm 4 mps 750 mmHg 67%
19:00 +21°C° 0 mm 4 mps 750 mmHg 71%
20:00 +19°C° 0 mm 3 mps 751 mmHg 74%
21:00 +17°C° 0 mm 3 mps 751 mmHg 77%
22:00 +17°C° 0 mm 3 mps 751 mmHg 79%
23:00 +16°C° 0 mm 3 mps 752 mmHg 81%

11 July, Saturday

Time Temperature Precipitation Wind Pressure Humidity
00:00 +16°C° 0 mm 3 mps 752 mmHg 84%
01:00 +14°C° 0 mm 3 mps 752 mmHg 85%
02:00 +14°C° 0 mm 3 mps 752 mmHg 86%
03:00 +13°C° 0 mm 3 mps 752 mmHg 88%
04:00 +14°C° 0 mm 3 mps 752 mmHg 86%
05:00 +14°C° 0 mm 3 mps 753 mmHg 85%
06:00 +16°C° 0 mm 3 mps 753 mmHg 84%
07:00 +17°C° 0 mm 3 mps 753 mmHg 78%
08:00 +19°C° 0 mm 3 mps 753 mmHg 72%
09:00 +21°C° 0 mm 3 mps 753 mmHg 66%
10:00 +22°C° 0 mm 3 mps 753 mmHg 61%
11:00 +24°C° 0 mm 3 mps 753 mmHg 57%
12:00 +25°C° 0 mm 3 mps 753 mmHg 52%
13:00 +25°C° 0 mm 3 mps 753 mmHg 53%
14:00 +25°C° 0 mm 4 mps 753 mmHg 53%
15:00 +25°C° 0 mm 4 mps 753 mmHg 53%
16:00 +25°C° 0 mm 3 mps 753 mmHg 57%
17:00 +25°C° 0 mm 3 mps 753 mmHg 62%
18:00 +24°C° 0 mm 2 mps 753 mmHg 66%
19:00 +23°C° 0 mm 2 mps 753 mmHg 69%
20:00 +20°C° 0 mm 2 mps 753 mmHg 72%
21:00 +18°C° 0 mm 2 mps 753 mmHg 74%
22:00 +17°C° 0 mm 2 mps 753 mmHg 77%
23:00 +17°C° 0 mm 2 mps 753 mmHg 79%

12 July, Sunday

Time Temperature Precipitation Wind Pressure Humidity
00:00 +16°C° 0 mm 2 mps 752 mmHg 82%
01:00 +16°C° 0 mm 2 mps 752 mmHg 83%
02:00 +15°C° 0 mm 2 mps 752 mmHg 85%
03:00 +15°C° 0 mm 2 mps 752 mmHg 86%
04:00 +16°C° 0 mm 2 mps 752 mmHg 85%
05:00 +16°C° 0 mm 2 mps 752 mmHg 84%
06:00 +17°C° 0 mm 2 mps 752 mmHg 83%
07:00 +19°C° 0 mm 2 mps 752 mmHg 78%
08:00 +20°C° 0 mm 2 mps 752 mmHg 73%
09:00 +22°C° 0 mm 3 mps 752 mmHg 67%
10:00 +24°C° 0 mm 3 mps 752 mmHg 62%
11:00 +25°C° 0 mm 3 mps 751 mmHg 56%
12:00 +26°C° 0 mm 3 mps 751 mmHg 51%
13:00 +27°C° 0 mm 3 mps 751 mmHg 50%
14:00 +27°C° 0 mm 3 mps 750 mmHg 50%
15:00 +27°C° 0 mm 3 mps 750 mmHg 50%
16:00 +27°C° 0 mm 3 mps 750 mmHg 55%
17:00 +27°C° 0 mm 2 mps 749 mmHg 60%
18:00 +27°C° 0 mm 2 mps 749 mmHg 65%
19:00 +25°C° 0 mm 2 mps 749 mmHg 67%
20:00 +23°C° 0 mm 2 mps 749 mmHg 70%
21:00 +20°C° 0 mm 2 mps 749 mmHg 73%
22:00 +19°C° 0 mm 2 mps 748 mmHg 75%
23:00 +18°C° 0 mm 2 mps 748 mmHg 78%

13 July, Monday

Time Temperature Precipitation Wind Pressure Humidity
00:00 +18°C° 0 mm 2 mps 748 mmHg 80%
01:00 +17°C° 0 mm 2 mps 747 mmHg 82%
02:00 +17°C° 0 mm 2 mps 747 mmHg 84%
03:00 +17°C° 0 mm 2 mps 747 mmHg 86%
04:00 +17°C° 0 mm 2 mps 747 mmHg 86%
05:00 +18°C° 0 mm 2 mps 747 mmHg 86%
06:00 +18°C° 0 mm 2 mps 746 mmHg 86%
07:00 +20°C° 0 mm 2 mps 746 mmHg 81%
08:00 +23°C° 0 mm 2 mps 746 mmHg 76%
09:00 +25°C° 0 mm 2 mps 746 mmHg 71%
10:00 +26°C° 0.1 mm 2 mps 745 mmHg 67%
11:00 +27°C° 0.1 mm 2 mps 745 mmHg 64%
12:00 +28°C° 0.1 mm 2 mps 745 mmHg 61%
13:00 +28°C° 0.9 mm 2 mps 745 mmHg 62%
14:00 +28°C° 0.9 mm 2 mps 744 mmHg 63%
15:00 +27°C° 0.9 mm 1 mps 744 mmHg 65%
16:00 +27°C° 0.4 mm 2 mps 743 mmHg 67%
17:00 +27°C° 0.4 mm 2 mps 743 mmHg 70%
18:00 +26°C° 0.4 mm 2 mps 742 mmHg 73%
19:00 +25°C° 0.5 mm 2 mps 743 mmHg 78%
20:00 +23°C° 0.5 mm 2 mps 743 mmHg 82%
21:00 +21°C° 0.5 mm 2 mps 743 mmHg 87%
22:00 +21°C° 0.1 mm 2 mps 742 mmHg 88%
23:00 +20°C° 0.1 mm 2 mps 742 mmHg 89%
Show more